This demonstration page uses our WeatherBlox Daily Observations layout. Learn more.

Left ArrowRight Arrow

34.02893, -84.19858

Hourly Observations for July 12, 2021

Temp ( °F °C ) Dew Point ( °F °C ) Humidity (%) Winds ( mph kmh ) Pressure ( in mb ) Visibility ( mi km ) Precip ( " mm )
12:51 am 00:51 Mostly Cloudy 73 23 70 21 89 89 SSE 6 9 30.07 1018 10 16 0.00 0.00
12:53 am 00:53 Mostly Cloudy 72 22.2 70 21.1 94 94 SSE 3 6 30.06 1018 10 16 0.00 0.00
1:53 am 01:53 Mostly Cloudy 72 22.2 70 21.1 94 94 SSW 7 11 30.04 1017 10 16 0.00 0.00
2:06 am 02:06 Partly Cloudy 72 22.2 70 21.1 94 94 S 8 13 30.07 1018 10 16 0.00 0.00
2:17 am 02:17 Mostly Cloudy 72 22.2 70 21.1 94 94 S 6 9 30.08 1018 10 16 0.00 0.00
2:53 am 02:53 Partly Cloudy 71 21.7 69 20.6 94 94 S 7 11 30.06 1018 10 16 0.00 0.00
3:53 am 03:53 Clear 70 21.1 68 20 93 93 SSW 5 7 30.08 1019 10 16 0.00 0.00
4:53 am 04:53 Cloudy 71 21.7 69 20.6 94 94 SE 3 6 30.09 1019 10 16 0.00 0.00
5:53 am 05:53 Mostly Clear 70 21.1 68 20 93 93 Calm 30.10 1019 10 16 0.00 0.00
6:53 am 06:53 Mostly Cloudy 70 21.1 68 20 93 93 Calm 30.11 1020 10 16 0.00 0.00
7:53 am 07:53 Sunny 72 22.2 68 20 87 87 S 6 9 30.13 1020 10 16 0.00 0.00
8:53 am 08:53 Mostly Cloudy 73 22.8 69 20.6 87 87 S 5 7 30.15 1021 10 16 0.00 0.00
9:48 am 09:48 Sunny 75 24 70 21 83 83 S 7 11 30.17 1022 10 16 0.00 0.00
9:53 am 09:53 Sunny 76 24.4 70 21.1 82 82 S 7 11 30.16 1021 10 16 0.00 0.00
3:53 pm 15:53 Mostly Cloudy 75 23.9 72 22.2 90 90 SW 7 11 30.16 1021 10 16 0.00 0.00
4:53 pm 16:53 Sunny 75 23.9 71 21.7 88 88 SSE 7 11 30.14 1021 10 16 0.00 0.00
5:53 pm 17:53 Sunny 76 24.4 70 21.1 82 82 SSW 6 9 30.13 1020 10 16 0.00 0.00
6:53 pm 18:53 Sunny 77 25 71 21.7 82 82 WSW 5 7 30.14 1021 10 16 0.00 0.00
7:53 pm 19:53 Mostly Cloudy 78 25.6 71 21.7 79 79 SSE 5 7 30.16 1021 10 16 0.00 0.00
8:53 pm 20:53 Mostly Cloudy 71 21.7 65 18.3 81 81 S 9 15 30.19 1023 10 16 0.00 0.00
9:53 pm 21:53 Partly Cloudy 69 20.6 66 18.9 90 90 S 6 9 30.19 1023 10 16 0.00 0.00
10:53 pm 22:53 Clear 69 20.6 67 19.4 93 93 Calm 30.19 1022 10 16 0.00 0.00
11:53 pm 23:53 Clear 68 20 67 19.4 96 96 SE 3 6 30.20 1023 10 16 0.00 0.00

Powered by AerisWeather